Home   Weather   Clarington   Past weeks

Flag for Canada Past Weather in Clarington, Ontario, Canada — Yesterday and Last 2 Weeks

Now
36 °F

Light rain. Mostly cloudy.


Feels Like: 28 °F
Forecast: 37 / 43 °F
Wind: 10 mph from Northwest

Location: Peterborough Airport

Current Time: Dec 2, 2016 at 3:13:13 pm

Latest Report: Dec 2, 2016 at 2:00 pm


Visibility: 9 mi

Pressure: 29.81 "Hg

Humidity: 100%

Dew Point: 36 °F

Location of ClaringtonLocation

Past Weather in Clarington — Graph

°F

Clarington Temperature Yesterday

Maximum temperature yesterday: 48 °F (at 12:03 am)
Minimum temperature yesterday: 39 °F (at 8:00 am)
Average temperature yesterday: 42 °F

High & Low Weather Summary for the Past Weeks

 TemperatureHumidityPressure
High66 °F (Nov 18, 2:00 pm)100% (Nov 17, 9:00 pm)30.40 "Hg (Nov 17, 9:00 pm)
Low10 °F (Nov 23, 5:00 am)52% (Nov 18, 2:00 pm)29.40 "Hg (Nov 30, 10:00 pm)
Average35 °F87%29.94 "Hg
* Reported Nov 17 1:00 pm — Dec 2 1:50 pm, Clarington, Weather by CustomWeather, © 2016

Note: Actual official high and low records may vary slightly from our data, if they occured in-between our weather recording intervals... More about our weather records

Advertising

Clarington Weather History for the Previous 24 Hours

Scroll right to see more
 ConditionsComfort  
Time TempWeatherWind HumidityBarometerVisibility
1:50 pm
Fri, Dec 2
36 °FLight rain. Mostly cloudy.12 mph93%29.81 "Hg8 mi
1:00 pm37 °FLight rain. Cloudy.10 mph93%29.80 "Hg7 mi
12:56 pm37 °FLight rain. Mostly cloudy.13 mph93%29.80 "Hg9 mi
12:02 pm37 °FLight rain. Fog.12 mph93%29.80 "Hg4 mi
11:52 am37 °FLight rain. Fog.13 mph93%29.80 "Hg5 mi
11:00 am41 °FPartly sunny.21 mph76%29.78 "Hg9 mi
10:00 am41 °FOvercast.21 mph70%29.78 "Hg9 mi
9:00 am39 °FOvercast.21 mph75%29.77 "Hg9 mi
8:00 am37 °FPartly sunny.10 mph81%29.77 "Hg9 mi
7:00 am37 °FPassing clouds.14 mph81%29.75 "Hg9 mi
6:00 am39 °FMostly cloudy.20 mph81%29.73 "Hg9 mi
5:00 am39 °FMostly cloudy.16 mph81%29.72 "Hg9 mi
4:00 am39 °FMostly cloudy.12 mph81%29.72 "Hg9 mi
3:00 am39 °FOvercast.18 mph81%29.70 "Hg9 mi
2:00 am41 °FOvercast.12 mph81%29.70 "Hg9 mi
1:00 am39 °FMostly cloudy.10 mph87%29.67 "Hg9 mi
12:02 am41 °FMostly cloudy.9 mph81%29.67 "Hg9 mi
11:00 pm
Thu, Dec 1
41 °FOvercast.10 mph81%29.68 "Hg9 mi
10:00 pm39 °FMostly cloudy.10 mph87%29.68 "Hg9 mi
9:00 pm39 °FMostly cloudy.10 mph81%29.68 "Hg9 mi
8:00 pm39 °FOvercast.8 mph81%29.67 "Hg9 mi
7:00 pm39 °FPassing clouds.12 mph81%29.66 "Hg9 mi
6:00 pm39 °FMostly cloudy.12 mph81%29.65 "Hg9 mi
5:00 pm39 °FMostly cloudy.15 mph81%29.64 "Hg9 mi
4:00 pm41 °FMostly cloudy.13 mph76%29.61 "Hg9 mi
3:00 pm43 °FMostly cloudy.12 mph71%29.59 "Hg9 mi
Weather by CustomWeather, © 2016

See weather overviewHow to use our weather pages